Homepage

Classifica generale FantaTour de France

Tappa Generale Calendario

Nome Team Tempo Dist
1 VINGEGAARD Jonas Jumbo-Visma 79:33:20 00:00
2 POGACAR Tadej UAE-Emirates 79:36:03 02:43
3 THOMAS Geraint Ineos-Grenadiers 79:40:42 07:22
4 GAUDU David Groupama-FDJ 79:46:59 13:39
5 VLASOV Aleksandr Bora-Hansgrohe 79:49:06 15:46
6 QUINTANA Nairo Arkea-Samsic 79:49:53 16:33
7 BARDET Romain DSM 79:51:31 18:11
8 MEINTJES Louis Intermarche-Wanty-Gobert 79:52:04 18:44
9 LUTSENKO Alexey Astana-Qazaqstan 79:56:16 22:56
10 YATES Adam Ineos-Grenadiers 79:58:12 24:52
11 MADOUAS Valentin Groupama-FDJ 80:09:19 35:59
12 JUNGELS Bob Ag2r-Citroen 80:18:43 45:23
13 POWLESS Neilson EF-EasyPost 80:20:17 46:57
14 S┴NCHEZ Luis Leˇn Bahrain - Victorious 80:22:38 49:18
15 PINOT Thibaut Groupama-FDJ 80:23:45 50:25
16 KONRAD Patrick Bora-Hansgrohe 80:30:14 56:54
17 PIDCOCK Thomas Ineos-Grenadiers 80:34:35 1:01:15
18 KUSS Sepp Jumbo-Visma 80:35:49 1:02:29
19 TEUNS Dylan Bahrain - Victorious 80:44:50 1:11:30
20 MCNULTY Brandon UAE-Emirates 81:04:39 1:31:19
21 JORGENSON Matteo Movistar 81:07:17 1:33:57
22 VAN AERT Wout Jumbo-Visma 81:09:15 1:35:55
23 SCHULTZ Nick BikeExchange-Jayco 81:13:01 1:39:41
24 HOULE Hugo Israel-Premier 81:15:34 1:42:14
25 MOLLEMA Bauke Trek-Segafredo 81:19:17 1:45:57
26 UR┴N Rigoberto EF-EasyPost 81:21:38 1:48:18
27 VERONA Carlos Movistar 81:26:23 1:53:03
28 LEKNESSUND Andreas DSM 81:30:51 1:57:31
29 M▄HLBERGER Gregor Movistar 81:32:23 1:59:03
30 MART═NEZ Daniel Felipe Ineos-Grenadiers 81:34:15 2:00:55
31 VELASCO Simone Astana-Qazaqstan 81:37:44 2:04:24
32 VAN BAARLE Dylan Ineos-Grenadiers 81:48:54 2:15:34
33 K▄NG Stefan Groupama-FDJ 81:49:06 2:15:46
34 SCHÍNBERGER Sebastian BBHotelsKTM 81:50:15 2:16:55
35 STORER Michael Groupama-FDJ 81:56:35 2:23:15
36 BENOOT Tiesj Jumbo-Visma 81:56:54 2:23:34
37 GALLOPIN Tony Trek-Segafredo 81:58:31 2:25:11
38 HAMILTON Chris DSM 81:58:58 2:25:38
39 ZEITS Andrey Astana-Qazaqstan 81:59:42 2:26:22
40 IZAGIRRE Ion Cofidis 82:03:28 2:30:08
41 BETTIOL Alberto EF-EasyPost 82:08:04 2:34:44
42 OWSIAN Lukasz Arkea-Samsic 82:11:08 2:37:48
43 DOMBROWSKI Joe Astana-Qazaqstan 82:11:11 2:37:51
44 ZIMMERMANN Georg Intermarche-Wanty-Gobert 82:13:00 2:39:40
45 GESCHKE Simon Cofidis 82:14:43 2:41:23
46 SCHACHMANN Maximilian Bora-Hansgrohe 82:17:24 2:44:04
47 GOOSSENS Kobe Intermarche-Wanty-Gobert 82:19:27 2:46:07
48 GENIETS Kevin Groupama-FDJ 82:21:28 2:48:08
49 CASTROVIEJO Jonathan Ineos-Grenadiers 82:24:54 2:51:34
50 BOUET Maxime Arkea-Samsic 82:25:16 2:51:56
51 PASQUALON Andrea Intermarche-Wanty-Gobert 82:29:42 2:56:22
52 OLIVEIRA Nelson Movistar 82:30:59 2:57:39
53 GRO▀SCHARTNER Felix Bora-Hansgrohe 82:31:35 2:58:15
54 THOMAS Benjamin Cofidis 82:36:58 3:03:38
55 WRIGHT Fred Bahrain - Victorious 82:37:28 3:04:08
56 POLITT Nils Bora-Hansgrohe 82:43:49 3:10:29
57 LATOUR Pierre TotalEnergies 82:45:26 3:12:06
58 BOASSON HAGEN Edvald TotalEnergies 82:46:18 3:12:58
59 CICCONE Giulio Trek-Segafredo 82:50:04 3:16:44
60 DILLIER Silvan Alpecin-Deceuninck 82:50:37 3:17:17
61 SKUJINŐ Toms Trek-Segafredo 82:50:48 3:17:28
62 DUCHESNE Antoine Groupama-FDJ 82:51:38 3:18:18
63 PERICHON Pierre-Luc Cofidis 82:58:52 3:25:32
64 TUSVELD Martijn DSM 83:01:23 3:28:03
65 DEWULF Stan Ag2r-Citroen 83:02:38 3:29:18
66 BONNAMOUR Franck BBHotelsKTM 83:03:56 3:30:36
67 SIMMONS Quinn Trek-Segafredo 83:04:04 3:30:44
68 BURGAUDEAU Mathieu TotalEnergies 83:05:26 3:32:06
69 ROLLAND Pierre BBHotelsKTM 83:07:53 3:34:33
70 SWIFT Connor Arkea-Samsic 83:08:25 3:35:05
71 SBARAGLI Kristian Alpecin-Deceuninck 83:09:38 3:36:18
72 TRATNIK Jan Bahrain - Victorious 83:10:51 3:37:31
73 KRON Andreas Lotto-Soudal 83:10:57 3:37:37
74 LOUVEL Matis Arkea-Samsic 83:13:26 3:40:06
75 LAPORTE Christophe Jumbo-Visma 83:13:30 3:40:10
76 GILBERT Philippe Lotto-Soudal 83:15:14 3:41:54
77 NIV Guy Israel-Premier 83:17:42 3:44:22
78 MATTHEWS Michael BikeExchange-Jayco 83:19:19 3:45:59
79 NEILANDS Krists Israel-Premier 83:19:36 3:46:16
80 BARTHE Cyril BBHotelsKTM 83:21:54 3:48:34
81 STUYVEN Jasper Trek-Segafredo 83:22:48 3:49:28
82 HOFSTETTER Hugo Arkea-Samsic 83:23:17 3:49:57
83 BISSEGGER Stefan EF-EasyPost 83:25:06 3:51:46
84 PEREZ Anthony Cofidis 83:25:40 3:52:20
85 CAPIOT Amaury Arkea-Samsic 83:26:15 3:52:55
86 MOHORIC Matej Bahrain - Victorious 83:26:17 3:52:57
87 HALLER Marco Bora-Hansgrohe 83:26:25 3:53:05
88 LE GAC Olivier Groupama-FDJ 83:29:25 3:56:05
89 GOUGEARD Alexis BBHotelsKTM 83:31:35 3:58:15
90 DOULL Owain EF-EasyPost 83:31:39 3:58:19
91 COSNEFROY Benoţt Ag2r-Citroen 83:31:51 3:58:31
92 PHILIPSEN Jasper Alpecin-Deceuninck 83:32:30 3:59:10
93 BYSTRěM Sven Erik Intermarche-Wanty-Gobert 83:32:39 3:59:19
94 RUTSCH Jonas EF-EasyPost 83:32:41 3:59:21
95 GANNA Filippo Ineos-Grenadiers 83:36:51 4:03:31
96 CATTANEO Mattia Quick-Step-Alpha-Vinyl 83:37:12 4:03:52
97 RIABUSHENKO Alexandr Astana-Qazaqstan 83:37:40 4:04:20
98 BAGIOLI Andrea Quick-Step-Alpha-Vinyl 83:43:20 4:10:00
99 PEDERSEN Mads Trek-Segafredo 83:45:10 4:11:50
100 DAINESE Alberto DSM 83:47:34 4:14:14
101 MEZGEC Luka BikeExchange-Jayco 83:49:33 4:16:13
102 KRISTOFF Alexander Intermarche-Wanty-Gobert 83:50:34 4:17:14
103 MOZZATO Luca BBHotelsKTM 83:52:14 4:18:54
104 KRIEGER Alexander Alpecin-Deceuninck 83:53:02 4:19:42
105 DEGENKOLB John DSM 83:56:25 4:23:05
106 ROWE Luke Ineos-Grenadiers 84:00:00 4:26:40
107 S╔N╔CHAL Florian Quick-Step-Alpha-Vinyl 84:01:34 4:28:14
108 VERMEERSCH Florian Lotto-Soudal 84:02:13 4:28:53
109 VAN POPPEL Danny Bora-Hansgrohe 84:03:48 4:30:28
110 PLANCKAERT Edward Alpecin-Deceuninck 84:07:04 4:33:44
111 PETIT Adrien Intermarche-Wanty-Gobert 84:08:25 4:35:05
112 HONOR╔ Mikkel Fr°lich Quick-Step-Alpha-Vinyl 84:10:15 4:36:55
113 LEMOINE Cyril BBHotelsKTM 84:10:49 4:37:29
114 GRUZDEV Dmitriy Astana-Qazaqstan 84:10:56 4:37:36
115 BODNAR Maciej TotalEnergies 84:12:52 4:39:32
116 SAGAN Peter TotalEnergies 84:13:08 4:39:48
117 GROENEWEGEN Dylan BikeExchange-Jayco 84:14:15 4:40:55
118 GRADEK Kamil Bahrain - Victorious 84:16:06 4:42:46
119 EEKHOFF Nils DSM 84:16:06 4:42:46
120 LAMPAERT Yves Quick-Step-Alpha-Vinyl 84:19:34 4:46:14
121 VAN MOER Brent Lotto-Soudal 84:22:27 4:49:07
122 BAUER Jack BikeExchange-Jayco 84:24:25 4:51:05
123 VAN KEIRSBULCK Guillaume Alpecin-Deceuninck 84:27:32 4:54:12
124 BJERG Mikkel UAE-Emirates 84:33:33 5:00:13
125 VAN DER HOORN Taco Intermarche-Wanty-Gobert 84:35:54 5:02:34
126 LECROQ JÚrÚmy BBHotelsKTM 84:47:09 5:13:49
127 HIRSCHI Marc UAE-Emirates 84:48:29 5:15:09
128 JUUL-JENSEN Christopher BikeExchange-Jayco 84:48:46 5:15:26
129 TURGIS Anthony TotalEnergies 84:53:37 5:20:17
130 JAKOBSEN Fabio Quick-Step-Alpha-Vinyl 84:56:58 5:23:38
131 FRISON Frederik Lotto-Soudal 85:03:39 5:30:19
132 JANSE VAN RENSBURG Reinardt Lotto-Soudal 85:04:45 5:31:25
133 JANSEN Amund Gr°ndahl BikeExchange-Jayco 85:04:47 5:31:27
134 TORRES Albert Movistar 85:09:53 5:36:33
135 EWAN Caleb Lotto-Soudal 85:13:02 5:40:42

ę2000-2022 Fantatornei«.com - Tutti i diritti riservati
Condizioni d'uso - Contattaci - Privacy